sat.trackr.live / text

‹ back to catalog

STARLINK-37450

NORAD 68818 · 2026-089S

PAYLOAD ACTIVE UNKNOWN

§ Identity

Operator
Country
US
Launch date
2026-04-23
Launch site
AFWTR
Launch vehicle
Mass (kg)
RCS (m²)

Purposes: comms

External: N2YO · Heavens-Above · Gunter

§ Orbital elements

Epoch: 2026-05-25T02:36:04.037184Z

Period
91.42 min
Inclination
97.2854°
Eccentricity
0.0002346
Mean motion
15.75193892 rev/d
Perigee alt
342.5 km
Apogee alt
345.7 km
Semi-major
6,722.2 km
B*
1.4062e-3
RAAN
351.7688°
Arg perigee
94.5237°
Mean anomaly
265.6296°
Rev number
506

§ Raw data

STARLINK-374501 68818U 26089S   26145.10838006  .00215022  00000+0  14062-2 0  99962 68818  97.2854 351.7688 0002346  94.5237 265.6296 15.75193892  5068

JSON: /api/v1/satellites/68818 · /tle

For live sub-satellite position, see the globe view (requires WebGL).

§ Visibility from observer

Set your observer location to see the next 7 days of passes ≥ 10°. The values pass through the URL so the page stays shareable.

No JS? Fill the form by hand. The geolocation button needs JavaScript.